When you browse on this site, cookies collect data to enhance your experience and personalize the content and advertising you see.
Visit our Privacy Policy to learn more. By continuing to use the site, you agree to this use of cookies and data.
EN

Hourly Weather Splavnuha

Today, 24 September, Thursday

Time Temperature Precipitation Wind Pressure Humidity
00:00 +14°C° 0 mm 1 mps 747 mmHg 66%
01:00 +14°C° 0 mm 1 mps 747 mmHg 68%
02:00 +13°C° 0 mm 2 mps 748 mmHg 70%
03:00 +13°C° 0 mm 2 mps 748 mmHg 73%
04:00 +13°C° 0 mm 2 mps 748 mmHg 77%
05:00 +12°C° 0 mm 2 mps 748 mmHg 80%
06:00 +12°C° 0 mm 2 mps 748 mmHg 84%
07:00 +14°C° 0 mm 2 mps 749 mmHg 78%
08:00 +14°C° 0 mm 3 mps 749 mmHg 72%
09:00 +17°C° 0 mm 3 mps 749 mmHg 66%
10:00 +18°C° 0 mm 3 mps 749 mmHg 61%
11:00 +19°C° 0 mm 4 mps 749 mmHg 56%
12:00 +20°C° 0 mm 4 mps 749 mmHg 51%
13:00 +21°C° 0 mm 4 mps 749 mmHg 50%
14:00 +21°C° 0 mm 4 mps 749 mmHg 49%
15:00 +21°C° 0 mm 4 mps 749 mmHg 48%
16:00 +20°C° 0 mm 4 mps 749 mmHg 52%
17:00 +19°C° 0 mm 3 mps 749 mmHg 57%
18:00 +18°C° 0 mm 3 mps 749 mmHg 61%
19:00 +17°C° 0 mm 3 mps 749 mmHg 62%
20:00 +16°C° 0 mm 3 mps 750 mmHg 63%
21:00 +15°C° 0 mm 4 mps 750 mmHg 65%
22:00 +14°C° 0 mm 4 mps 750 mmHg 64%
23:00 +13°C° 0 mm 3 mps 750 mmHg 62%

Tomorrow, 25 September, Friday

Time Temperature Precipitation Wind Pressure Humidity
00:00 +13°C° 0 mm 3 mps 750 mmHg 61%
01:00 +13°C° 0 mm 3 mps 750 mmHg 62%
02:00 +12°C° 0 mm 3 mps 750 mmHg 64%
03:00 +12°C° 0 mm 3 mps 750 mmHg 65%
04:00 +12°C° 0 mm 3 mps 750 mmHg 64%
05:00 +11°C° 0 mm 3 mps 750 mmHg 63%
06:00 +11°C° 0 mm 3 mps 750 mmHg 62%
07:00 +12°C° 0 mm 4 mps 750 mmHg 58%
08:00 +14°C° 0 mm 4 mps 750 mmHg 53%
09:00 +15°C° 0 mm 5 mps 750 mmHg 49%
10:00 +16°C° 0 mm 5 mps 750 mmHg 45%
11:00 +19°C° 0 mm 5 mps 750 mmHg 41%
12:00 +20°C° 0 mm 5 mps 750 mmHg 38%
13:00 +20°C° 0 mm 5 mps 750 mmHg 36%
14:00 +20°C° 0 mm 5 mps 750 mmHg 35%
15:00 +21°C° 0 mm 5 mps 750 mmHg 33%
16:00 +19°C° 0 mm 5 mps 749 mmHg 37%
17:00 +18°C° 0 mm 4 mps 749 mmHg 40%
18:00 +15°C° 0 mm 4 mps 749 mmHg 43%
19:00 +15°C° 0 mm 4 mps 749 mmHg 45%
20:00 +14°C° 0 mm 4 mps 749 mmHg 47%
21:00 +13°C° 0 mm 4 mps 749 mmHg 49%
22:00 +12°C° 0 mm 4 mps 749 mmHg 51%
23:00 +12°C° 0 mm 3 mps 749 mmHg 53%

Day after tomorrow, 26 September, Saturday

Time Temperature Precipitation Wind Pressure Humidity
00:00 +11°C° 0 mm 3 mps 749 mmHg 56%
01:00 +11°C° 0 mm 3 mps 749 mmHg 57%
02:00 +11°C° 0 mm 3 mps 749 mmHg 59%
03:00 +10°C° 0 mm 3 mps 749 mmHg 60%
04:00 +10°C° 0 mm 4 mps 749 mmHg 62%
05:00 +10°C° 0 mm 4 mps 749 mmHg 64%
06:00 +10°C° 0 mm 4 mps 749 mmHg 65%
07:00 +12°C° 0 mm 4 mps 749 mmHg 60%
08:00 +13°C° 0 mm 5 mps 749 mmHg 55%
09:00 +15°C° 0 mm 5 mps 749 mmHg 50%
10:00 +17°C° 0 mm 5 mps 750 mmHg 46%
11:00 +20°C° 0 mm 5 mps 750 mmHg 41%
12:00 +22°C° 0 mm 6 mps 750 mmHg 37%
13:00 +22°C° 0 mm 6 mps 750 mmHg 35%
14:00 +23°C° 0 mm 6 mps 750 mmHg 33%
15:00 +23°C° 0 mm 6 mps 750 mmHg 31%
16:00 +22°C° 0 mm 5 mps 750 mmHg 34%
17:00 +20°C° 0 mm 5 mps 750 mmHg 37%
18:00 +18°C° 0 mm 4 mps 750 mmHg 39%
19:00 +17°C° 0 mm 5 mps 750 mmHg 40%
20:00 +16°C° 0 mm 5 mps 751 mmHg 40%
21:00 +15°C° 0 mm 5 mps 751 mmHg 41%
22:00 +14°C° 0 mm 5 mps 751 mmHg 42%
23:00 +13°C° 0 mm 5 mps 751 mmHg 44%

27 September, Sunday

Time Temperature Precipitation Wind Pressure Humidity
00:00 +12°C° 0 mm 4 mps 752 mmHg 45%
01:00 +12°C° 0 mm 4 mps 752 mmHg 48%
02:00 +11°C° 0 mm 4 mps 752 mmHg 50%
03:00 +10°C° 0 mm 4 mps 752 mmHg 53%
04:00 +10°C° 0 mm 4 mps 752 mmHg 55%
05:00 +10°C° 0 mm 4 mps 752 mmHg 56%
06:00 +8°C° 0 mm 4 mps 752 mmHg 58%
07:00 +10°C° 0 mm 5 mps 752 mmHg 53%
08:00 +11°C° 0 mm 6 mps 752 mmHg 48%
09:00 +12°C° 0 mm 7 mps 752 mmHg 43%
10:00 +15°C° 0 mm 7 mps 752 mmHg 39%
11:00 +16°C° 0 mm 7 mps 753 mmHg 35%
12:00 +17°C° 0 mm 8 mps 753 mmHg 31%
13:00 +17°C° 0 mm 8 mps 752 mmHg 31%
14:00 +17°C° 0 mm 8 mps 752 mmHg 30%
15:00 +18°C° 0 mm 8 mps 752 mmHg 29%
16:00 +16°C° 0 mm 7 mps 752 mmHg 32%
17:00 +15°C° 0 mm 6 mps 752 mmHg 35%
18:00 +14°C° 0 mm 6 mps 752 mmHg 38%
19:00 +13°C° 0 mm 6 mps 752 mmHg 39%
20:00 +12°C° 0 mm 5 mps 752 mmHg 41%
21:00 +12°C° 0 mm 5 mps 752 mmHg 42%
22:00 +10°C° 0 mm 5 mps 752 mmHg 44%
23:00 +10°C° 0 mm 5 mps 752 mmHg 46%

28 September, Monday

Time Temperature Precipitation Wind Pressure Humidity
00:00 +9°C° 0 mm 5 mps 752 mmHg 47%
01:00 +9°C° 0 mm 5 mps 752 mmHg 48%
02:00 +9°C° 0 mm 5 mps 752 mmHg 49%
03:00 +9°C° 0 mm 5 mps 752 mmHg 50%
04:00 +9°C° 0 mm 5 mps 752 mmHg 50%
05:00 +9°C° 0 mm 5 mps 752 mmHg 50%
06:00 +9°C° 0 mm 5 mps 752 mmHg 50%
07:00 +10°C° 0 mm 6 mps 752 mmHg 46%
08:00 +11°C° 0 mm 6 mps 752 mmHg 43%
09:00 +13°C° 0 mm 6 mps 752 mmHg 39%
10:00 +14°C° 0 mm 7 mps 753 mmHg 36%
11:00 +15°C° 0 mm 7 mps 753 mmHg 33%
12:00 +16°C° 0 mm 7 mps 753 mmHg 30%
13:00 +16°C° 0 mm 7 mps 753 mmHg 30%
14:00 +16°C° 0 mm 6 mps 753 mmHg 30%
15:00 +16°C° 0 mm 6 mps 753 mmHg 29%
16:00 +15°C° 0 mm 5 mps 753 mmHg 34%
17:00 +14°C° 0 mm 4 mps 753 mmHg 39%
18:00 +13°C° 0 mm 3 mps 753 mmHg 43%
19:00 +13°C° 0 mm 3 mps 753 mmHg 47%
20:00 +13°C° 0 mm 3 mps 753 mmHg 50%
21:00 +12°C° 0 mm 3 mps 753 mmHg 54%
22:00 +12°C° 0 mm 3 mps 753 mmHg 51%
23:00 +12°C° 0 mm 3 mps 753 mmHg 48%

29 September, Tuesday

Time Temperature Precipitation Wind Pressure Humidity
00:00 +13°C° 0 mm 4 mps 753 mmHg 45%
01:00 +12°C° 0 mm 4 mps 753 mmHg 44%
02:00 +12°C° 0 mm 4 mps 753 mmHg 44%
03:00 +12°C° 0 mm 4 mps 753 mmHg 44%
04:00 +11°C° 0 mm 4 mps 753 mmHg 46%
05:00 +11°C° 0 mm 4 mps 753 mmHg 49%
06:00 +10°C° 0 mm 4 mps 753 mmHg 51%
07:00 +10°C° 0 mm 5 mps 753 mmHg 47%
08:00 +11°C° 0 mm 6 mps 753 mmHg 43%
09:00 +14°C° 0 mm 6 mps 753 mmHg 39%
10:00 +15°C° 0 mm 6 mps 753 mmHg 36%
11:00 +16°C° 0 mm 7 mps 752 mmHg 33%
12:00 +17°C° 0 mm 7 mps 752 mmHg 29%
13:00 +17°C° 0 mm 7 mps 752 mmHg 29%
14:00 +18°C° 0 mm 7 mps 751 mmHg 29%
15:00 +18°C° 0 mm 7 mps 751 mmHg 28%
16:00 +17°C° 0 mm 6 mps 751 mmHg 31%
17:00 +16°C° 0 mm 6 mps 751 mmHg 33%
18:00 +15°C° 0 mm 6 mps 751 mmHg 35%
19:00 +14°C° 0 mm 6 mps 750 mmHg 37%
20:00 +13°C° 0 mm 6 mps 750 mmHg 39%
21:00 +13°C° 0 mm 6 mps 750 mmHg 41%
22:00 +13°C° 0 mm 6 mps 750 mmHg 43%
23:00 +11°C° 0 mm 6 mps 750 mmHg 44%
Show more